www.pogodaiklimat.ru

Погода и климат >> Архив погоды >> Южная Африка >> Порт-Альфред


ПОГОДА в Порт-Альфред

  • Прогноз погоды в Порт-Альфред
  • Монитор погоды в Порт-Альфред

АРХИВ ПОГОДЫ в Порт-Альфред

Время (UTC), дата Ветер
(напр.,м/с)
 
Видим.   Явления Облачность Т
(С)
Тd
(С)
f
(%)
Тe
(С)
Тes
(С)
Комфортность P
(гПа)
Po
(гПа)
Тmin
(С)
Tmax
(С)
R
(мм)
R24
(мм)
S
(см)
18 18.06 СВ 9 н/о н/о +17.5 +14.9 85 +16 +16 1026.7 1016.7 +17.3 +22.1
21 18.06 В 2 н/о н/о +15.4 +13.4 88 +15 +15 1025.9 1015.8 +15.3 +22.1
00 19.06 В 2 н/о н/о +13.7 +11.6 87 +13 +13 1025.9 1015.7 +13.7 +22.1
03 19.06 В 2 н/о н/о +11.0 +9.4 90 +10 +10 1024.9 1014.7 +10.9 +22.1
06 19.06 СЗ 1 н/о н/о +9.0 +7.9 93 +8 +8 1024.8 1014.5 +8.1
09 19.06 СЗ 3 н/о н/о +25.2 +4.5 26 +25 +25 комфорт 1024.4 1014.7 +8.1 +25.2
12 19.06 СЗ 4 н/о н/о +27.9 +3.1 20 +26 +26 жарко 1022.7 1013.1 +8.1 +28.6
15 19.06 СЗ 1 н/о н/о +22.1 +8.0 40 +23 +23 комфорт 1022.9 1013.1 +22.0 +28.6
18 19.06 СЗ 2 н/о н/о +16.4 +6.6 52 +17 +17 1023.8 1013.8 +15.8 +28.6
21 19.06 СЗ 2 н/о н/о +15.4 +5.4 51 +15 +15 1024.0 1013.9 +15.1 +28.6
00 20.06 З 4 н/о н/о +14.6 +4.3 50 +14 +14 1023.5 1013.4 +13.3 +28.6
03 20.06 СЗ 4 н/о н/о +17.8 +2.6 36 +18 +18 1022.8 1012.8 +13.3 +28.6
06 20.06 СЗ 4 н/о н/о +18.8 +2.7 34 +19 +19 1023.5 1013.5 +13.3
09 20.06 СЗ 5 н/о н/о +26.1 +4.2 24 +25 +25 комфорт 1023.9 1014.2 +13.3 +26.1
12 20.06 З 4 н/о н/о +28.3 +2.0 18 +26 +26 жарко 1021.5 1011.9 +13.3 +28.5
15 20.06 СВ 2 н/о н/о +20.4 +10.6 53 +23 +23 комфорт 1021.2 1011.3 +20.4 +28.5
18 20.06 СЗ 1 н/о н/о +15.4 +7.9 61 +16 +16 1021.7 1011.6 +15.3 +28.5
21 20.06 С 3 н/о н/о +16.2 +5.5 49 +16 +16 1020.0 1010.0 +12.1 +28.5
00 21.06 З 3 н/о н/о +13.1 +4.3 55 +12 +12 1019.3 1009.2 +11.8 +28.5
03 21.06 СЗ 3 н/о н/о +16.4 +1.0 35 +16 +16 1018.1 1008.1 +11.8 +28.5
06 21.06 С 5 н/о н/о +17.9 +0.6 31 +18 +18 1018.4 1008.5 +11.8
09 21.06 З 1 н/о н/о +24.7 +1.8 22 +24 +24 комфорт 1018.4 1008.7 +11.8 +24.7
12 21.06 СЗ 5 н/о н/о +27.8 -3.9 12 +25 +25 комфорт 1015.1 1005.5 +11.8 +28.3
15 21.06 ЮЗ 2 н/о н/о +26.5 -2.8 14 +24 +24 комфорт 1013.9 1004.3 +26.5 +28.5
18 21.06 СЗ 2 н/о н/о +17.0 +1.9 36 +18 +18 1015.1 1005.2 +16.0 +28.5
21 21.06 З 3 н/о н/о +11.4 +4.2 61 +10 +10 1015.0 1004.9 +11.4 +28.5
00 22.06 З 2 н/о н/о +16.6 +0.7 34 +17 +17 1013.5 1003.6 +11.4 +28.5
03 22.06 СЗ 3 н/о н/о +15.6 +2.5 41 +15 +15 1014.6 1004.6 +11.4 +28.5
06 22.06 СЗ 4 н/о н/о +14.7 +3.5 47 +14 +14 1015.5 1005.5 +11.4
09 22.06 З 6 н/о н/о +21.3 +3.6 31 +21 +21 комфорт 1017.5 1007.7 +11.4 +21.3
12 22.06 З 6 н/о н/о +22.3 +4.0 30 +22 +22 комфорт 1015.8 1006.0 +11.4 +22.3
15 22.06 З 2 н/о н/о +16.7 +10.8 68 +17 +17 1016.4 1006.4 +16.7 +22.5
18 22.06 СЗ 3 н/о н/о +12.7 +6.9 68 +11 +11 1017.2 1007.1 +10.8 +22.5
21 22.06 З 4 н/о н/о +17.7 +8.3 54 +17 +17 1017.4 1007.5 +10.8 +22.5
00 23.06 З 6 н/о н/о +18.1 +9.5 57 +18 +18 1016.5 1006.6 +10.8 +22.5
03 23.06 З 6 н/о н/о +15.6 +11.4 76 +14 +14 1016.7 1006.7 +10.8 +22.5
06 23.06 З 6 н/о н/о +14.0 +12.4 90 +12 +12 1018.1 1008.0 +10.8 1
09 23.06 З 6 н/о н/о +14.6 +13.3 92 +13 +13 1020.6 1010.5 +10.8 +15.2
12 23.06 З 6 н/о н/о +14.6 +12.9 90 +13 +13 1019.0 1008.9 +10.8 +15.2 4
15 23.06 З 4 н/о н/о +15.3 +12.6 84 +14 +14 1019.8 1009.8 +14.7 +16.6
18 23.06 З 3 н/о н/о +12.5 +10.9 90 +11 +11 1021.1 1010.9 +12.4 +16.6 4
21 23.06 СЗ 3 н/о н/о +12.0 +10.0 88 +10 +10 1020.8 1010.6 +11.8 +16.6
00 24.06 З 2 н/о н/о +9.8 +8.7 93 +8 +8 1019.6 1009.4 +9.3 +16.6 4
03 24.06 З 3 н/о н/о +8.2 +7.2 93 +5 +5 1018.2 1007.9 +8.2 +16.6
06 24.06 З 4 н/о н/о +7.2 +6.4 95 +4 +4 1018.3 1008.0 +7.0 4
15 24.06 З 4 н/о н/о +16.4 +12.0 75 +16 +16 1017.9 1007.9 +16.4 +22.2
15 25.06 В 6 н/о н/о +12.7 +11.9 95 +10 +10 1025.5 1015.3 +12.5 +13.7

 

Местоположение метеостанции Порт-Альфред (Южная Африка): широта -33.56 долгота 26.88 высота над уровнем моря 84 м.

В архиве по умолчанию представлена погода в Порт-Альфред за последнюю неделю. Архивные данные за месяц целиком и за предыдущие месяцы, начиная с января 2011 года, Вы можете получить, выбрав интересующий диапазон дат из раскрывающегося списка и нажав кнопку "Ввод!".


*Определитесь, кто Вы:
робот инопланетянин человек

Внимание! Время в таблицах - всемирное. Для получения местного времени необходимо прибавить поправку, которая равна 2 ч.

Смотрите также архив погоды в соседних городах и на ближайших метеорологических станциях:

Погода в Грейамстауне (Южная Африка) (47 км)
Погода на Острове Бёрд (Южная Африка) (63 км)
Погода в Аэропорту Бишо (Южная Африка) (82 км)
Погода в Форт-Бофорте (Южная Африка) (90 км)
Погода в Парке Addo Elephant (Южная Африка) (106 км)
Погода в Ист-Лондоне (Южная Африка) (106 км)
Погода в Нгкура (Южная Африка) (115 км)
Погода в Порт-Элизабет (Южная Африка) (126 км)
Погода в Стуттерхейме (Южная Африка) (129 км)
Погода в Эйтенхахе (Южная Африка) (134 км)

Пояснения к столбцам:

Ветер - указаны скорость ветра в м/с - средняя за 10 мин, порывы в срок и между сроками (в фигурных скобках) и направление, откуда дует ветер: С - северный, СВ - северо-восточный, В - восточный, ЮВ - юго-восточный, Ю - южный, ЮЗ - юго-западный, З - западный, СЗ - северо-западный.
Видимость - горизонтальная дальность видимости в метрах или километрах. При видимости от 1 до 10 км при отсутствии осадков обычно наблюдается дымка, при ухудшении видимости до 1 км и менее - туман. В сухую погоду видимость может ухудшаться дымом, пылью или мглою.
Явления - указаны атмосферные явления, наблюдавшиеся в срок или в последний час перед сроком; фигурными скобками обозначены явления, наблюдавшиеся между сроками (за 1-3 часа до срока); квадратными скобками обозначены град или гололедные отложения с указанием их диаметра в мм.
Облачность - указаны через наклонную черту общая и нижняя облачность в баллах и высота нижней границы облаков в метрах; квадратными скобками обозначены формы облаков: Ci - перистые, Cs - перисто-слоистые, Cc - перисто-кучевые, Ac - высококучевые, As - высокослоистые, Sc - слоисто-кучевые, Ns - слоисто-дождевые, Cu - кучевые, Cb - кучево-дождевые. Подробнее классификацию облаков см. в Атласе облаков (PDF).
T - Температура воздуха - температура, измеренная на высоте 2 м над землей.
Td - Температура точки росы - температура, при понижении до которой содержащийся в воздухе водяной пар достигнет насыщения.
f - Относительная влажность воздуха - влажноcть воздуха, измеренная на высоте 2 м над землей.
Te - Эффективная температура - температура, которую ощущает одетый по сезону человек в тени. Характеристика душности погоды. При расчете учитывается влияние влажности воздуха и скорости ветра на теплоощущения человека.
Tes - Эффективная температура на солнце - температура, которую ощущает человек, с поправкой на солнечный нагрев. Характеристика знойности погоды. Зависит от высоты солнца над горизонтом, облачности и скорости ветра. Ночью, в пасмурную погоду, а также при ветре 12 м/с и более поправка равна нулю.
P - Атмосферное давление - приведенное к уровню моря атмосферное давление.
Po - Атмосферное давление - измеренное на уровне метеостанции атмосферное давление.
Tmin - Минимальная температура - минимум температуры воздуха на высоте 2 м над землей.
Tmax - Максимальная температура - максимум температуры воздуха на высоте 2 м над землей.
R - Количество осадков - Количество выпавших осадков за период времени, мм. При наведении курсора мыши на число - период времени, за который выпало указанное количество осадков.
R24 - Количество осадков - Количество выпавших осадков за 24 часа, мм.
S - Снежный покров - Высота снежного покрова, см. При наведении курсора мыши на число - состояние снежного покрова и степень покрытия местности в баллах.